Weather History for Crookston, MN

Change the Weather History Date:

Thursday, July 25, 2013

  Actual Average Record
Temperature  
Mean Temperature 66 °F -  
Max Temperature 78 °F 77 °F 93 °F (2007)
Min Temperature 55 °F 55 °F 50 °F (1996)
Cooling Degree Days 2    
Growing Degree Days 16 (Base 50)    
Moisture  
Dew Point 56 °F    
Average Humidity 75    
Maximum Humidity 100    
Minimum Humidity 38    
Precipitation  
Precipitation 0.00 in - - ()
Sea Level Pressure  
Sea Level Pressure 29.93 in    
Wind  
Wind Speed 7 mph (NW)    
Max Wind Speed 25 mph    
Max Gust Speed 31 mph    
Visibility 10 miles    
Events Thunderstorm    
Averages and records for this station are not official NWS values.
T = Trace of Precipitation, MM = Missing Value Source: NWS Daily Summary

Daily Weather History Graph

Daily Weather History Graph

Search for Another Location

Airport:

Trip Planner

Search our weather history database for the weather conditions in past years. The results will help you decide how hot, cold, wet, or windy it might be!

Date:

Astronomy

Jul. 25, 2013 Rise Set
Actual Time 5:54 AM CDT 9:10 PM CDT
Civil Twilight 5:17 AM CDT 9:47 PM CDT
Nautical Twilight 4:28 AM CDT 10:36 PM CDT
Astronomical Twilight 3:25 AM CDT 11:38 PM CDT
Moon 10:28 PM CDT (7/25) 9:46 AM CDT (7/25)
Length of Visible Light 16h 30m
Length of Day
15h 15m
Waning Gibbous, 88% of the Moon is Illuminated
Jul 25
Waning Gibbous
Jul 29
Last Quarter
Aug 6
New
Aug 14
First Quarter
Aug 20
Full

Hourly Weather History & Observations

Time (CDT) Temp. Dew Point Humidity Pressure Visibility Wind Dir Wind Speed Gust Speed Precip Events Conditions
12:14 AM 59.0 °F 57.2 °F 94% 29.94 in 10.0 mi WNW 4.6 mph - N/A   Clear
12:35 AM 57.2 °F 55.4 °F 94% 29.95 in 10.0 mi Calm Calm - N/A   Clear
12:54 AM 57.2 °F 55.4 °F 94% 29.94 in 10.0 mi West 3.5 mph - N/A   Clear
1:14 AM 57.2 °F 55.4 °F 94% 29.94 in 10.0 mi Calm Calm - N/A   Clear
1:35 AM 57.2 °F 55.4 °F 94% 29.94 in 10.0 mi Calm Calm - N/A   Clear
1:54 AM 57.2 °F 55.4 °F 94% 29.94 in 10.0 mi West 3.5 mph - N/A   Clear
2:15 AM 57.2 °F 55.4 °F 94% 29.94 in 10.0 mi Calm Calm - N/A   Clear
2:35 AM 55.4 °F 55.4 °F 100% 29.94 in 10.0 mi Calm Calm - N/A   Clear
2:54 AM 55.4 °F 55.4 °F 100% 29.95 in 10.0 mi NNW 3.5 mph - N/A   Clear
3:14 AM 57.2 °F 55.4 °F 94% 29.93 in 10.0 mi Calm Calm - N/A   Clear
3:35 AM 57.2 °F 55.4 °F 94% 29.93 in 10.0 mi Calm Calm - N/A   Clear
3:54 AM 57.2 °F 57.2 °F 100% 29.93 in 10.0 mi Calm Calm - N/A   Clear
4:15 AM 59.0 °F 57.2 °F 94% 29.93 in 10.0 mi Calm Calm - N/A   Clear
4:35 AM 57.2 °F 57.2 °F 100% - 10.0 mi Calm Calm - N/A   Clear
4:54 AM 59.0 °F 57.2 °F 94% 29.92 in 10.0 mi Calm Calm - N/A   Clear
5:15 AM 57.2 °F 55.4 °F 94% 29.92 in 10.0 mi Calm Calm - N/A   Scattered Clouds
5:35 AM 57.2 °F 55.4 °F 94% 29.93 in 10.0 mi Calm Calm - N/A   Scattered Clouds
5:54 AM 57.2 °F 55.4 °F 94% 29.94 in 10.0 mi Calm Calm - N/A   Scattered Clouds
6:15 AM 55.4 °F 55.4 °F 100% 29.94 in 7.0 mi Calm Calm - N/A   Scattered Clouds
6:34 AM 57.2 °F 55.4 °F 94% 29.94 in 7.0 mi Calm Calm - N/A   Clear
6:54 AM 57.2 °F 57.2 °F 100% 29.93 in 7.0 mi Calm Calm - N/A   Clear
7:15 AM 59.0 °F 57.2 °F 94% 29.93 in 7.0 mi Calm Calm - N/A   Clear
7:34 AM 60.8 °F 59.0 °F 94% 29.95 in 7.0 mi West 3.5 mph - N/A   Clear
7:54 AM 60.8 °F 60.8 °F 100% 29.95 in 10.0 mi Calm Calm - N/A   Clear
8:15 AM 62.6 °F 60.8 °F 94% 29.95 in 10.0 mi Calm Calm - N/A   Clear
8:34 AM 64.4 °F 60.8 °F 88% 29.93 in 10.0 mi Calm Calm - N/A   Clear
8:54 AM 64.4 °F 60.8 °F 88% 29.94 in 10.0 mi Calm Calm - N/A   Clear
9:15 AM 66.2 °F 62.6 °F 88% 29.93 in 10.0 mi SW 4.6 mph - N/A   Scattered Clouds
9:34 AM 66.2 °F 60.8 °F 83% 29.93 in 10.0 mi SW 4.6 mph - N/A Thunderstorm Clear
9:55 AM 69.8 °F 62.6 °F 78% 29.93 in 10.0 mi WSW 6.9 mph - N/A   Scattered Clouds
10:14 AM 69.8 °F 62.6 °F 78% 29.92 in 10.0 mi WSW 6.9 mph - N/A   Clear
10:34 AM 71.6 °F 62.6 °F 73% 29.92 in 10.0 mi West 9.2 mph - N/A   Clear
10:55 AM 73.4 °F 60.8 °F 65% 29.92 in 10.0 mi WNW 16.1 mph - N/A   Scattered Clouds
11:14 AM 73.4 °F 60.8 °F 65% 29.92 in 10.0 mi WNW 13.8 mph - N/A   Scattered Clouds
11:34 AM 73.4 °F 60.8 °F 65% 29.92 in 10.0 mi NW 13.8 mph - N/A   Scattered Clouds
11:55 AM 75.2 °F 60.8 °F 61% 29.92 in 10.0 mi West 11.5 mph - N/A   Scattered Clouds
12:14 PM 75.2 °F 60.8 °F 61% 29.91 in 10.0 mi WNW 10.4 mph - N/A   Scattered Clouds
12:34 PM 77.0 °F 59.0 °F 54% 29.90 in 10.0 mi WNW 13.8 mph - N/A   Scattered Clouds
12:55 PM 75.2 °F 57.2 °F 53% 29.90 in 10.0 mi WNW 15.0 mph - N/A   Scattered Clouds
1:14 PM 75.2 °F 59.0 °F 57% 29.89 in 10.0 mi WNW 15.0 mph 19.6 mph N/A   Scattered Clouds
1:34 PM 77.0 °F 57.2 °F 50% 29.89 in 10.0 mi NW 17.3 mph 27.6 mph N/A   Scattered Clouds
1:55 PM 77.0 °F 57.2 °F 50% 29.89 in 10.0 mi NW 20.7 mph 24.2 mph N/A   Scattered Clouds
2:14 PM 78.8 °F 55.4 °F 44% 29.89 in 10.0 mi WNW 20.7 mph 25.3 mph N/A   Clear
2:35 PM 78.8 °F 55.4 °F 44% 29.89 in 10.0 mi NW 19.6 mph 25.3 mph N/A   Scattered Clouds
2:55 PM 75.2 °F 55.4 °F 50% 29.89 in 10.0 mi NW 19.6 mph 27.6 mph N/A   Scattered Clouds
3:14 PM 75.2 °F 55.4 °F 50% 29.89 in 10.0 mi NW 18.4 mph 26.5 mph N/A   Scattered Clouds
3:35 PM 75.2 °F 51.8 °F 44% 29.89 in 10.0 mi WNW 18.4 mph 27.6 mph N/A   Clear
3:55 PM 75.2 °F 51.8 °F 44% 29.90 in 10.0 mi WNW 20.7 mph 28.8 mph N/A   Scattered Clouds
4:14 PM 75.2 °F 50.0 °F 41% 29.90 in 10.0 mi WNW 18.4 mph 27.6 mph N/A   Clear
4:35 PM 75.2 °F 48.2 °F 38% 29.90 in 10.0 mi WNW 24.2 mph 28.8 mph N/A   Clear
4:55 PM 75.2 °F 48.2 °F 38% 29.90 in 10.0 mi NW 21.9 mph 29.9 mph N/A   Scattered Clouds
5:14 PM 75.2 °F 48.2 °F 38% 29.90 in 10.0 mi NW 19.6 mph 31.1 mph N/A   Scattered Clouds
5:35 PM 75.2 °F 51.8 °F 44% 29.91 in 10.0 mi NNW 20.7 mph 28.8 mph N/A   Clear
5:54 PM 75.2 °F 53.6 °F 47% 29.91 in 10.0 mi NW 24.2 mph 31.1 mph N/A   Scattered Clouds
6:14 PM 71.6 °F 51.8 °F 50% 29.91 in 10.0 mi NW 25.3 mph 28.8 mph N/A   Mostly Cloudy
6:35 PM 71.6 °F 55.4 °F 57% 29.92 in 10.0 mi NNW 18.4 mph 29.9 mph N/A   Scattered Clouds
6:54 PM 69.8 °F 53.6 °F 56% 29.92 in 10.0 mi NNW 18.4 mph 21.9 mph N/A   Clear
7:14 PM 69.8 °F 53.6 °F 56% 29.93 in 10.0 mi NW 18.4 mph 24.2 mph N/A   Clear
7:35 PM 68.0 °F 53.6 °F 60% 29.93 in 10.0 mi NNW 17.3 mph 25.3 mph N/A   Scattered Clouds
7:54 PM 68.0 °F 53.6 °F 60% 29.94 in 10.0 mi NW 18.4 mph 24.2 mph N/A   Clear
8:14 PM 66.2 °F 53.6 °F 64% 29.94 in 10.0 mi NNW 13.8 mph - N/A   Clear
8:35 PM 64.4 °F 55.4 °F 73% 29.95 in 10.0 mi NNW 13.8 mph - N/A   Clear
8:54 PM 64.4 °F 55.4 °F 73% 29.95 in 10.0 mi NNW 10.4 mph - N/A   Scattered Clouds
9:15 PM 62.6 °F 55.4 °F 77% 29.95 in 10.0 mi NNW 11.5 mph 17.3 mph N/A   Scattered Clouds
9:35 PM 60.8 °F 55.4 °F 82% 29.95 in 10.0 mi NNW 10.4 mph - N/A   Scattered Clouds
9:54 PM 59.0 °F 55.4 °F 88% 29.96 in 10.0 mi NNW 10.4 mph - N/A   Clear
10:15 PM 59.0 °F 55.4 °F 88% 29.96 in 10.0 mi NNW 9.2 mph - N/A Thunderstorm Clear
10:34 PM 57.2 °F 55.4 °F 94% 29.96 in 10.0 mi NNW 8.1 mph - N/A   Clear
10:54 PM 57.2 °F 55.4 °F 94% 29.96 in 10.0 mi NNW 10.4 mph - N/A   Clear
11:15 PM 57.2 °F 55.4 °F 94% 29.96 in 10.0 mi NNW 10.4 mph - N/A   Scattered Clouds
11:34 PM 57.2 °F 55.4 °F 94% 29.96 in 10.0 mi NNW 11.5 mph - N/A   Overcast
11:54 PM 57.2 °F 55.4 °F 94% 29.96 in 10.0 mi NNW 11.5 mph - N/A   Overcast